Location: *
(40.7873°S, 98.7174°E)
Time: 23:44:48
(UTC+00:00)

ARIANE 6 FM1 Upper Stage - Pass Details

Date: 23 December 2025
Orbit: 522 x 610 km, 62.0° (Epoch: 20 January)

Event Time Altitude Azimuth Distance (km) Brightness Sun altitude
Rises 15:33:26 0° 205° (SSW) 2,913 7.9 -20.8°
Reaches altitude 10° 15:36:54 10° 178° (S) 1,997 6.3 -21.1°
Maximum altitude 15:39:09 13° 148° (SSE) 1,768 5.6 -21.3°
Drops below altitude 10° 15:41:23 10° 118° (ESE) 1,977 5.5 -21.5°
Enters shadow 15:42:46 - 104° (ESE) 2,280 5.7 -21.6°
